Weather History for Bentonville, AR

Change the Weather History Date:

Wednesday, December 14, 2011

  Actual Average Record
Temperature  
Mean Temperature 58 °F -  
Max Temperature 60 °F 48 °F 76 °F (1948)
Min Temperature 55 °F 26 °F -5 °F (1985)
Degree Days  
Heating Degree Days 8    
Growing Degree Days 8 (Base 50)    
Moisture  
Dew Point 54 °F    
Average Humidity 88    
Maximum Humidity 94    
Minimum Humidity 82    
Precipitation  
Precipitation 0.40 in - - ()
Sea Level Pressure  
Sea Level Pressure 29.97 in    
Wind  
Wind Speed 10 mph (South)    
Max Wind Speed 17 mph    
Max Gust Speed 26 mph    
Visibility 10 miles    
Events Thunderstorm    
Averages and records for this station are not official NWS values.
T = Trace of Precipitation, MM = Missing Value Source: NWS Daily Summary

Daily Weather History Graph

Daily Weather History Graph

Search for Another Location

Airport:

Trip Planner

Search our weather history database for the weather conditions in past years. The results will help you decide how hot, cold, wet, or windy it might be!

Date:

Astronomy

Dec. 14, 2011 Rise Set
Actual Time 7:20 AM CST 5:02 PM CST
Civil Twilight 6:51 AM CST 5:31 PM CST
Nautical Twilight 6:19 AM CST 6:03 PM CST
Astronomical Twilight 5:47 AM CST 6:34 PM CST
Moon 9:18 PM CST (12/14) 10:10 AM CST (12/14)
Length of Visible Light 10h 39m
Length of Day
9h 42m
Waning Gibbous, 83% of the Moon is Illuminated
Dec 14
Waning Gibbous
Dec 17
Last Quarter
Dec 24
New
Jan 1
First Quarter
Jan 9
Full

Hourly Weather History & Observations

Time (CST) Temp. Dew Point Humidity Pressure Visibility Wind Dir Wind Speed Gust Speed Precip Events Conditions
12:15 AM 55.4 °F 50.0 °F 82% 30.12 in 10.0 mi South 6.9 mph - N/A   Mostly Cloudy
12:35 AM 55.4 °F 50.0 °F 82% 30.11 in 10.0 mi South 9.2 mph - N/A   Overcast
12:55 AM 55.4 °F 50.0 °F 82% 30.11 in 10.0 mi South 8.1 mph - N/A   Overcast
1:15 AM 55.4 °F 51.8 °F 88% 30.10 in 10.0 mi South 12.7 mph 20.7 mph N/A   Overcast
1:35 AM 55.4 °F 51.8 °F 88% 30.10 in 10.0 mi South 10.4 mph 18.4 mph N/A   Overcast
1:55 AM 55.4 °F 50.0 °F 82% 30.09 in 10.0 mi South 12.7 mph 17.3 mph N/A   Overcast
2:15 AM 55.4 °F 50.0 °F 82% 30.10 in 10.0 mi South 8.1 mph - N/A   Overcast
2:35 AM 55.4 °F 51.8 °F 88% 30.09 in 10.0 mi South 9.2 mph 16.1 mph N/A   Overcast
3:15 AM 55.4 °F 51.8 °F 88% 30.09 in 10.0 mi South 9.2 mph - N/A   Overcast
3:36 AM 55.4 °F 51.8 °F 88% 30.08 in 10.0 mi South 6.9 mph 18.4 mph N/A   Overcast
3:55 AM 55.4 °F 51.8 °F 88% 30.08 in 10.0 mi South 12.7 mph 16.1 mph N/A   Overcast
4:15 AM 55.4 °F 51.8 °F 88% 30.08 in 10.0 mi South 8.1 mph - N/A   Overcast
4:35 AM 55.4 °F 51.8 °F 88% 30.07 in 10.0 mi South 11.5 mph - N/A   Overcast
4:55 AM 55.4 °F 51.8 °F 88% 30.06 in 10.0 mi South 10.4 mph - N/A   Overcast
5:35 AM 55.4 °F 51.8 °F 88% 30.05 in 10.0 mi SSE 13.8 mph - N/A   Overcast
6:15 AM 55.4 °F 51.8 °F 88% 30.04 in 10.0 mi SSE 10.4 mph - N/A   Overcast
6:35 AM 55.4 °F 51.8 °F 88% 30.04 in 10.0 mi SSE 12.7 mph - N/A   Overcast
6:55 AM 55.4 °F 51.8 °F 88% 30.04 in 10.0 mi South 11.5 mph 18.4 mph N/A   Overcast
7:15 AM 55.4 °F 50.0 °F 82% 30.04 in 10.0 mi South 11.5 mph 17.3 mph N/A   Overcast
7:35 AM 55.4 °F 51.8 °F 88% 30.03 in 10.0 mi South 11.5 mph 18.4 mph N/A   Overcast
7:55 AM 55.4 °F 51.8 °F 88% 30.04 in 10.0 mi South 11.5 mph 18.4 mph N/A   Overcast
8:15 AM 55.4 °F 51.8 °F 88% 30.02 in 10.0 mi South 10.4 mph 18.4 mph N/A   Overcast
8:35 AM 55.4 °F 51.8 °F 88% 30.02 in 10.0 mi SSE 12.7 mph 17.3 mph N/A   Mostly Cloudy
8:55 AM 55.4 °F 51.8 °F 88% 30.02 in 10.0 mi South 12.7 mph 19.6 mph N/A   Mostly Cloudy
9:15 AM 55.4 °F 51.8 °F 88% 30.02 in 10.0 mi South 11.5 mph 19.6 mph N/A   Overcast
9:35 AM 55.4 °F 51.8 °F 88% 30.02 in 10.0 mi South 11.5 mph - N/A   Overcast
9:55 AM 55.4 °F 51.8 °F 88% 30.02 in 10.0 mi South 9.2 mph 17.3 mph N/A   Overcast
10:15 AM 55.4 °F 53.6 °F 94% 30.01 in 5.0 mi South 10.4 mph 18.4 mph 0.04 in   Mostly Cloudy
10:55 AM 57.2 °F 53.6 °F 88% 29.99 in 10.0 mi South 10.4 mph 18.4 mph 0.04 in   Overcast
11:15 AM 57.2 °F 53.6 °F 88% 29.98 in 9.0 mi South 13.8 mph 24.2 mph N/A   Overcast
11:35 AM 57.2 °F 53.6 °F 88% 29.97 in 7.0 mi South 13.8 mph 23.0 mph 0.02 in   Overcast
12:15 PM 57.2 °F 53.6 °F 88% 29.95 in 10.0 mi South 15.0 mph 23.0 mph N/A   Overcast
12:35 PM 57.2 °F 53.6 °F 88% 29.94 in 10.0 mi South 17.3 mph 21.9 mph N/A   Overcast
1:15 PM 59.0 °F 53.6 °F 82% 29.92 in 10.0 mi South 12.7 mph 19.6 mph N/A   Overcast
1:35 PM 59.0 °F 53.6 °F 82% 29.91 in 10.0 mi South 10.4 mph 18.4 mph N/A   Overcast
1:55 PM 59.0 °F 55.4 °F 88% 29.90 in 10.0 mi South 9.2 mph 23.0 mph N/A   Overcast
2:15 PM 59.0 °F 55.4 °F 88% 29.90 in 10.0 mi South 13.8 mph 21.9 mph N/A   Overcast
2:35 PM 59.0 °F 55.4 °F 88% 29.90 in 10.0 mi South 16.1 mph 21.9 mph N/A   Overcast
3:15 PM 60.8 °F 55.4 °F 82% 29.88 in 10.0 mi South 16.1 mph 26.5 mph N/A   Overcast
3:35 PM 60.8 °F 55.4 °F 82% 29.88 in 10.0 mi South 15.0 mph 25.3 mph N/A   Overcast
3:55 PM 60.8 °F 55.4 °F 82% 29.87 in 10.0 mi South 10.4 mph 18.4 mph N/A Thunderstorm Overcast
4:35 PM 59.0 °F 55.4 °F 88% 29.88 in 9.0 mi South 9.2 mph - 0.05 in Thunderstorm Thunderstorm
4:55 PM 57.2 °F 55.4 °F 94% 29.89 in 10.0 mi South 6.9 mph 16.1 mph 0.08 in Thunderstorm Thunderstorm
5:15 PM 57.2 °F 55.4 °F 94% 29.86 in 10.0 mi SSE 11.5 mph - 0.01 in   Overcast
5:35 PM 57.2 °F 55.4 °F 94% 29.85 in 10.0 mi South 12.7 mph 18.4 mph 0.04 in Thunderstorm Overcast
6:15 PM 59.0 °F 55.4 °F 88% 29.87 in 10.0 mi South 9.2 mph - N/A   Overcast
6:35 PM 59.0 °F 57.2 °F 94% 29.87 in 9.0 mi South 8.1 mph 16.1 mph N/A   Overcast
6:55 PM 59.0 °F 57.2 °F 94% 29.88 in 10.0 mi South 12.7 mph 25.3 mph N/A   Overcast
7:15 PM 59.0 °F 57.2 °F 94% 29.91 in 10.0 mi South 12.7 mph - N/A Thunderstorm Overcast
7:35 PM 59.0 °F 57.2 °F 94% 29.85 in 10.0 mi South 6.9 mph - N/A Thunderstorm Overcast
7:55 PM 59.0 °F 57.2 °F 94% 29.88 in 10.0 mi South 6.9 mph - 0.19 in   Overcast
8:15 PM 59.0 °F 57.2 °F 94% 29.87 in 10.0 mi South 8.1 mph - 0.01 in   Overcast
8:35 PM 59.0 °F 55.4 °F 88% 29.85 in 10.0 mi South 10.4 mph - 0.02 in   Overcast
8:55 PM 59.0 °F 57.2 °F 94% 29.87 in 10.0 mi South 8.1 mph 17.3 mph 0.03 in   Overcast
9:15 PM 59.0 °F 57.2 °F 94% 29.86 in 10.0 mi South 6.9 mph - N/A   Overcast
9:35 PM 59.0 °F 55.4 °F 88% 29.89 in 10.0 mi SW 8.1 mph - N/A   Overcast
9:55 PM 57.2 °F 55.4 °F 94% 29.89 in 10.0 mi SSW 6.9 mph - N/A   Mostly Cloudy
10:15 PM 57.2 °F 55.4 °F 94% 29.89 in 10.0 mi SW 4.6 mph - N/A   Overcast
10:35 PM 57.2 °F 55.4 °F 94% 29.90 in 10.0 mi SSW 5.8 mph - N/A   Overcast
10:55 PM 59.0 °F 55.4 °F 88% 29.91 in 10.0 mi SW 9.2 mph - N/A   Overcast
11:15 PM 59.0 °F 55.4 °F 88% 29.91 in 10.0 mi SW 9.2 mph - N/A   Overcast
11:35 PM 59.0 °F 57.2 °F 94% 29.91 in 10.0 mi SW 9.2 mph - N/A   Overcast
11:56 PM 59.0 °F 55.4 °F 88% 29.92 in 10.0 mi SW 9.2 mph - N/A   Overcast